MEGLR Weather Reports


time (UTC)temp
F
wind
direction
speed
knots
gust
knots
rain 1hr
in
rain 24hr
in
rain mn
in
humidity
%
barometer
mb
20260505101003 53 205 13.0 15.6 0.00 0.00 0.00 91
20260505100009 53 210 13.0 15.6 0.00 0.00 0.00 91
20260505095003 53 205 13.0 14.8 0.00 0.00 0.00 91
20260505094002 53 205 13.0 15.6 0.00 0.00 0.00 92
20260505093003 53 210 11.3 14.8 0.00 0.00 0.00 93
20260505092003 53 225 10.4 14.8 0.00 0.00 0.00 93
20260505091003 53 220 11.3 16.5 0.00 0.00 0.00 93
20260505090005 53 210 13.9 16.5 0.00 0.00 0.00 94
20260505085002 53 215 13.0 17.4 0.00 0.00 0.00 93
20260505084002 53 215 14.8 19.1 0.00 0.00 0.00 92
20260505083003 53 220 13.9 18.2 0.00 0.00 0.00 92
20260505082003 53 220 12.2 15.6 0.00 0.00 0.00 93
20260505081003 53 220 12.2 14.8 0.00 0.00 0.00 93
20260505080004 53 220 14.8 17.4 0.00 0.00 0.00 93
20260505075002 53 215 14.8 17.4 0.00 0.00 0.00 93
20260505074002 53 220 13.9 19.1 0.00 0.00 0.00 94
20260505073003 53 220 15.6 17.4 0.00 0.00 0.00 94
20260505072003 53 220 12.2 16.5 0.00 0.00 0.00 95
20260505071003 53 220 14.8 19.1 0.00 0.00 0.00 94
20260505070003 53 225 14.8 18.2 0.00 0.00 0.00 93
20260505065003 52 220 14.8 17.4 0.00 0.00 0.00 95
20260505064003 52 220 14.8 18.2 0.00 0.00 0.00 96
20260505063003 53 225 12.2 17.4 0.00 0.00 0.00 96
20260505062003 52 230 10.4 15.6 0.00 0.00 0.00 96
20260505061002 52 220 9.6 16.5 0.00 0.00 0.00 97
20260505060003 52 220 14.8 20.0 0.00 0.00 0.00 97
20260505055003 52 220 13.9 17.4 0.00 0.00 0.00 97
20260505054003 52 225 12.2 17.4 0.00 0.00 0.00 97
20260505053008 52 220 13.0 20.0 0.00 0.00 0.00 97
20260505052003 52 225 15.6 18.2 0.00 0.00 0.00 96
20260505051003 52 225 17.4 20.0 0.00 0.00 0.00 97
20260505041003 52 230 15.6 20.0 0.00 0.00 0.00 97
20260505040003 52 230 13.9 20.0 0.00 0.00 0.00 97
20260505035002 52 230 14.8 18.2 0.00 0.00 0.00 98
20260505034003 52 230 15.6 20.0 0.00 0.00 0.00 98
20260505033003 53 230 13.9 19.1 0.00 0.00 0.00 97
20260505032003 53 230 13.9 19.1 0.00 0.00 0.00 97
20260505031003 53 230 14.8 18.2 0.00 0.00 0.00 96
20260505030003 53 225 10.4 20.0 0.00 0.00 0.00 97
20260505025003 53 225 17.4 20.0 0.00 0.00 0.00 96
20260505024003 53 230 13.0 20.0 0.00 0.00 0.00 96
20260505023004 53 240 14.8 21.7 0.00 0.00 0.00 95
20260505022003 53 230 13.0 20.0 0.00 0.00 0.00 95
20260505021003 53 225 16.5 21.7 0.00 0.00 0.00 95
20260505020003 53 230 17.4 23.5 0.00 0.00 0.00 95
20260505015002 53 230 13.9 21.7 0.00 0.00 0.00 95
20260505014002 53 225 17.4 23.5 0.00 0.00 0.00 95
20260505013003 53 235 16.5 22.6 0.00 0.00 0.00 94
20260505012003 54 230 14.8 23.5 0.00 0.00 0.00 95
20260505011003 53 235 20.9 25.2 0.00 0.00 0.00 94
20260505010004 54 230 16.5 22.6 0.00 0.00 0.00 94
20260505005002 53 230 17.4 22.6 0.00 0.00 0.00 93
20260505004003 54 235 16.5 23.5 0.00 0.00 0.00 92
20260505003003 54 235 20.0 25.2 0.00 0.00 0.00 92
20260505002003 54 230 18.2 25.2 0.00 0.00 0.00 93
20260505001003 54 225 21.7 26.1 0.00 0.00 0.00 92
20260505000004 54 230 20.9 24.3 0.00 0.00 0.00 93
20260504235002 54 225 20.0 22.6 0.00 0.00 0.00 93
20260504234002 54 225 20.0 26.1 0.00 0.00 0.00 92
20260504233003 54 230 19.1 24.3 0.00 0.00 0.00 92
20260504232003 54 230 20.9 25.2 0.00 0.00 0.00 92
20260504231003 54 230 21.7 26.1 0.00 0.00 0.00 92
20260504230004 54 225 22.6 26.1 0.00 0.00 0.00 93
20260504225003 54 225 19.1 24.3 0.00 0.00 0.00 93
20260504224002 54 225 21.7 24.3 0.00 0.00 0.00 93
20260504223002 54 230 18.2 22.6 0.00 0.00 0.00 93
20260504222003 54 230 19.1 23.5 0.00 0.00 0.00 93
20260504221003 55 230 18.2 21.7 0.00 0.00 0.00 91
20260504220003 55 230 20.9 23.5 0.00 0.00 0.00 90
20260504215003 55 230 17.4 23.5 0.00 0.00 0.00 90
20260504214003 55 230 20.0 23.5 0.00 0.00 0.00 90
20260504213003 55 230 20.9 23.5 0.00 0.00 0.00 89
20260504212003 55 230 20.0 24.3 0.00 0.00 0.00 90
20260504211002 55 230 18.2 21.7 0.00 0.00 0.00 88
20260504210004 55 230 18.2 21.7 0.00 0.00 0.00 88
20260504205003 55 230 18.2 21.7 0.00 0.00 0.00 88
20260504204005 55 230 17.4 22.6 0.00 0.00 0.00 89
20260504203003 55 230 20.0 21.7 0.00 0.00 0.00 88
20260504202002 55 230 19.1 21.7 0.00 0.00 0.00 87
20260504201002 55 230 18.2 21.7 0.00 0.00 0.00 86
20260504200003 55 230 19.1 22.6 0.00 0.00 0.00 87
20260504195003 55 230 17.4 21.7 0.00 0.00 0.00 87
20260504194003 55 230 18.2 21.7 0.00 0.00 0.00 87
20260504193003 55 230 18.2 20.0 0.00 0.00 0.00 88
20260504192003 55 225 15.6 21.7 0.00 0.00 0.00 89
20260504191003 55 230 18.2 20.0 0.00 0.00 0.00 88
20260504190002 55 235 15.6 17.4 0.00 0.00 0.00 88
20260504185002 55 230 14.8 18.2 0.00 0.00 0.00 89
20260504184003 55 230 13.0 18.2 0.00 0.00 0.00 89
20260504183003 55 230 15.6 20.0 0.00 0.00 0.00 89
20260504182003 55 235 13.9 16.5 0.00 0.00 0.00 89
20260504181003 55 230 14.8 18.2 0.00 0.00 0.00 90
20260504180003 55 235 15.6 17.4 0.00 0.00 0.00 90
20260504175002 55 235 13.9 17.4 0.00 0.00 0.00 91
20260504174003 54 225 14.8 17.4 0.00 0.00 0.00 90
20260504173003 54 230 13.0 16.5 0.00 0.00 0.00 90
20260504172003 55 235 12.2 14.8 0.00 0.00 0.00 90
20260504171003 54 225 10.4 14.8 0.00 0.00 0.00 92
20260504151003 52 225 13.0 14.8 0.00 0.00 0.00 98
20260504141003 52 215 13.9 17.4 0.00 0.00 0.00 99